This is the latest recevied weather packets stored in our database for station/object DM0MR. If no packets are shown the sender has not sent any weather packets the latest 10 day(s).
| Time | Temp. | Humidity | Pressure | Rain* | Wind** | Luminosity | Snow |
|---|---|---|---|---|---|---|---|
| 1777126281 | 22.22° C | 23% | 1005.2 hPa | 0 mm | - | - | - |
| 1777125380 | 22.22° C | 20% | 1005.3 hPa | 0 mm | - | - | - |
| 1777124480 | 22.78° C | 21% | 1005.3 hPa | 0 mm | - | - | - |
| 1777122679 | 22.22° C | 21% | 1005.4 hPa | 0 mm | - | - | - |
| 1777121781 | 22.22° C | 22% | 1005.4 hPa | 0 mm | - | - | - |
| 1777120880 | 21.67° C | 26% | 1005.6 hPa | 0 mm | - | - | - |
| 1777119981 | 22.22° C | 26% | 1005.8 hPa | 0 mm | - | - | - |
| 1777119080 | 21.67° C | 22% | 1005.8 hPa | 0 mm | - | - | - |
| 1777118181 | 21.67° C | 27% | 1006 hPa | 0 mm | - | - | - |
| 1777117279 | 21.67° C | 31% | 1006 hPa | 0 mm | - | - | - |
| 1777116381 | 21.67° C | 32% | 1006.2 hPa | 0 mm | - | - | - |
| 1777115480 | 21.11° C | 32% | 1006.3 hPa | 0 mm | - | - | - |
| 1777114580 | 20.56° C | 34% | 1006.3 hPa | 0 mm | - | - | - |
| 1777113680 | 20.56° C | 34% | 1006.5 hPa | 0 mm | - | - | - |
| 1777112780 | 20° C | 36% | 1006.6 hPa | 0 mm | - | - | - |
| 1777111881 | 20° C | 37% | 1006.7 hPa | 0 mm | - | - | - |
| 1777110981 | 19.44° C | 40% | 1006.8 hPa | 0 mm | - | - | - |
| 1777110081 | 18.33° C | 45% | 1006.9 hPa | 0 mm | - | - | - |
| 1777109181 | 17.78° C | 47% | 1007.1 hPa | 0 mm | - | - | - |
| 1777108280 | 16.11° C | 53% | 1007 hPa | 0 mm | - | - | - |
| 1777107379 | 15.56° C | 57% | 1006.9 hPa | 0 mm | - | - | - |
| 1777106480 | 15° C | 57% | 1007 hPa | 0 mm | - | - | - |
| 1777105581 | 15° C | 60% | 1007 hPa | 0 mm | - | - | - |
| 1777104679 | 14.44° C | 63% | 1006.9 hPa | 0 mm | - | - | - |
| 1777103782 | 14.44° C | 61% | 1007 hPa | 0 mm | - | - | - |
* Rain latest hour (hover to see other rain measurements)
** Current wind speed in m/s (hover to see current wind gust speed)